Back to catalog

IRS 1D

AliveScienceSSO
NORAD 24971·PAYLOAD·🇮🇳 India

Launched Sep 29, 1997 from Satish Dhawan Space Centre

Loading…

Next Passes (next 24 hours)

TLE

FreshSource: Space-Track

Epoch: Sep 13, 2026, 22:17 UTC

1 24971U 97057A   26256.92887328  .00000101  00000-0  50753-4 0  9995
2 24971  98.8505 253.6001 0051511 327.9503  31.8552 14.35541647515341

Track IRS 1D in real time with AllMySat

Download on the App Store